Date String (YYYY-MM-DD hh:mm:ss) UTC,Instrument flags,absolute air pressure of the measurement (hPa),sample flow rate (lpm),inlet stack bypass flow (lpm),air temperature of the measurement (°C),ambient temperature measured by the external sensor (°C),aerosol sample conditioner tube jacket temperature (°C),OPC LED temperature (°C),internal box temperature (°C),relative humidity of the measurement (%),span deviation,mass concentration of particles derived from Lorenz-Mie calculation of OPC scattering (μg/m³),mass concentration of particles derived from Lorenz-Mie calculation of OPC scattering (μg/m³),mass concentration of particles derived from Lorenz-Mie calculation of OPC scattering (μg/m³)
DateTimeUTC,F1_M11,P_M11,Q1_M11,Q2_M11,T1_M11,T2_M11,T3_M11,T4_M11,T5_M11,U1_M11,ZSPAN_M11,X0_M11,X2_M11,X1_M11
2023-09-21 15:00:00,SystemResetWarning,0828.8,5.00,000.00,028.5,025.2,000.0,036.9,029.7,18.2,0000.0,0019.05,0004.41,0002.06
2023-09-21 15:01:00,SystemResetWarning,0828.8,5.00,000.00,028.5,025.6,000.0,036.9,029.7,18.9,0000.0,0022.11,0004.91,0002.18
2023-09-21 15:02:00,SystemResetWarning,0828.8,5.00,000.00,028.4,025.9,000.0,036.9,029.8,18.6,0000.0,0023.17,0005.15,0002.25
2023-09-21 15:03:00,SystemResetWarning,0828.8,5.00,000.00,028.4,026.1,000.0,036.9,029.9,18.5,0000.0,0023.55,0005.23,0002.29
2023-09-21 15:04:00,SystemResetWarning,0828.8,5.00,000.00,028.4,026.4,000.0,036.9,029.9,18.8,0000.0,0023.13,0005.24,0002.32
2023-09-21 15:05:00,SystemResetWarning,0828.7,5.00,000.00,028.4,026.6,000.0,036.9,029.9,19.1,0000.0,0022.95,0005.26,0002.33
2023-09-21 15:06:00,SystemResetWarning,0828.8,5.00,000.00,028.5,026.7,000.0,036.9,029.9,18.4,0000.0,0022.89,0005.26,0002.33
2023-09-21 15:07:00,SystemResetWarning,0828.7,5.00,000.00,028.5,026.9,000.0,036.9,030.0,17.5,0000.0,0022.89,0005.25,0002.34
2023-09-21 15:08:00,SystemResetWarning,0828.8,5.00,000.00,028.5,027.0,000.0,036.9,030.1,18.3,0000.0,0023.40,0005.26,0002.33
2023-09-21 15:09:00,SystemResetWarning,0828.8,5.00,000.00,028.5,027.1,000.0,036.9,030.1,18.2,0000.0,0023.10,0005.23,0002.33
2023-09-21 15:10:00,SystemResetWarning,0828.8,5.00,000.00,028.5,027.2,000.0,036.9,030.2,18.2,0000.0,0017.93,0004.58,0002.22
2023-09-21 15:11:00,SystemResetWarning,0828.7,5.00,000.00,028.6,027.3,000.0,036.9,030.2,17.7,0000.0,0012.85,0003.60,0002.06
2023-09-21 15:12:00,SystemResetWarning,0828.8,5.00,000.00,028.6,027.3,000.0,036.9,030.2,18.2,0000.0,0009.49,0003.05,0001.97
2023-09-21 15:13:00,SystemResetWarning,0828.7,5.00,000.00,028.6,027.4,000.0,036.9,030.3,18.5,0000.0,0007.86,0002.64,0001.91
2023-09-21 15:14:00,SystemResetWarning,0828.8,5.01,000.00,028.6,027.4,000.0,036.9,030.4,18.0,0000.0,0007.42,0002.55,0001.89
2023-09-21 15:15:00,SystemResetWarning,0828.8,5.00,000.00,028.7,027.5,000.0,036.9,030.4,18.4,0000.0,0007.64,0002.62,0001.88
2023-09-21 15:16:00,SystemResetWarning,0828.8,5.00,000.00,028.7,027.5,000.0,037.0,030.4,19.1,0000.0,0007.90,0002.62,0001.88
2023-09-21 15:17:00,SystemResetWarning,0828.8,5.00,000.00,028.7,027.6,000.0,037.0,030.4,19.5,0000.0,0007.83,0002.62,0001.88
2023-09-21 15:18:00,SystemResetWarning,0828.7,5.00,000.00,028.8,027.6,000.0,037.0,030.5,18.3,0000.0,0007.97,0002.60,0001.88
2023-09-21 15:19:00,SystemResetWarning,0828.8,5.00,000.00,028.8,027.6,000.0,037.0,030.5,18.0,0000.0,0007.79,0002.58,0001.87
2023-09-21 15:20:00,SystemResetWarning,0828.8,4.99,000.00,028.8,027.2,000.0,037.0,030.4,18.2,0000.0,0007.32,0002.55,0001.86
2023-09-21 15:21:00,SystemResetWarning,0828.7,5.00,000.00,028.7,025.6,000.0,037.0,029.8,18.5,0000.0,0007.29,0002.57,0001.85
2023-09-21 15:22:00,SystemResetWarning,0828.8,5.01,000.00,028.6,024.6,000.0,036.9,029.6,19.2,0000.0,0006.98,0002.56,0001.84
2023-09-21 15:23:00,SystemResetWarning,0828.7,5.01,000.00,028.5,024.7,000.0,036.9,029.6,19.7,0000.0,0006.26,0002.57,0001.83
2023-09-21 15:24:00,SystemResetWarning,0828.7,5.00,000.00,028.4,025.0,000.0,036.8,029.6,19.2,0000.0,0006.61,0002.62,0001.82
2023-09-21 15:25:00,SystemResetWarning,0828.8,5.00,000.00,028.3,025.3,000.0,036.8,029.6,18.2,0000.0,0007.24,0002.63,0001.82
2023-09-21 15:26:00,SystemResetWarning,0828.8,5.00,000.00,028.3,025.6,000.0,036.8,029.6,19.1,0000.0,0007.44,0002.56,0001.82
2023-09-21 15:27:00,SystemResetWarning,0828.8,4.99,000.00,028.3,025.9,000.0,036.8,029.7,18.6,0000.0,0006.55,0002.45,0001.81
2023-09-21 15:28:00,SystemResetWarning,0828.7,4.99,000.00,028.3,026.2,000.0,036.8,029.8,18.4,0000.0,0006.35,0002.43,0001.82
2023-09-21 15:29:00,SystemResetWarning,0828.7,5.00,000.00,028.3,026.4,000.0,036.8,029.8,18.6,0000.0,0007.12,0002.44,0001.82
2023-09-21 15:30:00,SystemResetWarning,0828.7,5.00,000.00,028.4,026.6,000.0,036.8,029.9,19.7,0000.0,0006.87,0002.44,0001.82
2023-09-21 15:31:00,SystemResetWarning,0828.7,5.01,000.00,028.4,026.7,000.0,036.8,029.9,19.8,0000.0,0006.85,0002.47,0001.83
2023-09-21 15:32:00,SystemResetWarning,0828.7,5.00,000.00,028.4,026.9,000.0,036.8,030.0,20.6,0000.0,0006.96,0002.46,0001.82
2023-09-21 15:33:00,SystemResetWarning,0828.7,4.98,000.00,028.4,027.0,000.0,036.8,030.0,20.8,0000.0,0007.02,0002.47,0001.83
2023-09-21 15:34:00,SystemResetWarning,0828.7,5.01,000.00,028.4,027.1,000.0,036.8,030.0,20.9,0000.0,0007.44,0002.49,0001.83
2023-09-21 15:35:00,SystemResetWarning,0828.7,5.01,000.00,028.5,027.1,000.0,036.8,030.1,20.4,0000.0,0007.82,0002.48,0001.84
2023-09-21 15:36:00,SystemResetWarning,0828.7,5.00,000.00,028.5,027.2,000.0,036.8,030.2,20.0,0000.0,0007.56,0002.45,0001.84
2023-09-21 15:37:00,SystemResetWarning,0828.7,5.00,000.00,028.5,027.3,000.0,036.8,030.1,19.8,0000.0,0007.29,0002.46,0001.84
2023-09-21 15:38:00,SystemResetWarning,0828.8,4.99,000.00,028.6,027.3,000.0,036.8,030.2,19.2,0000.0,0007.27,0002.53,0001.84
2023-09-21 15:39:00,SystemResetWarning,0828.7,5.00,000.00,028.6,027.4,000.0,036.8,030.3,19.1,0000.0,0007.43,0002.61,0001.84
2023-09-21 15:40:00,SystemResetWarning,0828.8,5.00,000.00,028.6,027.4,000.0,036.8,030.3,18.4,0000.0,0007.00,0002.59,0001.83
2023-09-21 15:41:00,SystemResetWarning,0828.8,5.01,000.00,028.6,027.5,000.0,036.9,030.3,18.5,0000.0,0006.90,0002.60,0001.82
2023-09-21 15:42:00,SystemResetWarning,0828.8,4.98,000.00,028.7,027.4,000.0,036.9,030.4,19.4,0000.0,0006.62,0002.58,0001.82
2023-09-21 15:43:00,SystemResetWarning,0828.7,4.99,000.00,028.6,026.2,000.0,036.9,030.0,18.9,0000.0,0006.70,0002.61,0001.83
2023-09-21 15:44:00,SystemResetWarning,0828.8,5.00,000.00,028.5,024.7,000.0,036.8,029.6,19.2,0000.0,0006.87,0002.67,0001.83
2023-09-21 15:45:00,SystemResetWarning,0828.8,5.00,000.00,028.4,024.6,000.0,036.8,029.7,19.6,0000.0,0006.35,0002.64,0001.83
2023-09-21 15:46:00,SystemResetWarning,0828.8,5.01,000.00,028.3,024.9,000.0,036.7,029.6,19.6,0000.0,0005.89,0002.65,0001.83
2023-09-21 15:47:00,SystemResetWarning,0828.8,5.01,000.00,028.3,025.2,000.0,036.7,029.5,19.8,0000.0,0005.54,0002.63,0001.83
2023-09-21 15:48:00,SystemResetWarning,0828.8,4.99,000.00,028.3,025.6,000.0,036.7,029.6,19.6,0000.0,0005.49,0002.62,0001.84
2023-09-21 15:49:00,SystemResetWarning,0828.8,5.00,000.00,028.3,025.9,000.0,036.7,029.6,19.3,0000.0,0006.19,0002.61,0001.84
2023-09-21 15:50:00,SystemResetWarning,0828.8,5.01,000.00,028.3,026.1,000.0,036.7,029.7,20.3,0000.0,0007.15,0002.55,0001.85
2023-09-21 15:51:00,SystemResetWarning,0828.9,5.00,000.00,028.3,026.4,000.0,036.7,029.7,20.4,0000.0,0007.55,0002.55,0001.85
2023-09-21 15:52:00,SystemResetWarning,0828.9,5.00,000.00,028.3,026.6,000.0,036.7,029.8,20.3,0000.0,0007.63,0002.56,0001.85
2023-09-21 15:53:00,SystemResetWarning,0828.9,5.01,000.00,028.3,026.7,000.0,036.7,029.9,20.4,0000.0,0007.72,0002.59,0001.85
2023-09-21 15:54:00,SystemResetWarning,0828.9,4.99,000.00,028.3,026.9,000.0,036.7,029.9,20.1,0000.0,0007.73,0002.61,0001.86
2023-09-21 15:55:00,SystemResetWarning,0828.8,4.99,000.00,028.4,027.0,000.0,036.7,030.0,19.6,0000.0,0007.68,0002.60,0001.86
2023-09-21 15:56:00,SystemResetWarning,0828.9,5.00,000.00,028.4,027.1,000.0,036.7,030.0,19.1,0000.0,0007.78,0002.72,0001.88
2023-09-21 15:57:00,SystemResetWarning,0828.9,5.00,000.00,028.4,027.2,000.0,036.7,030.1,18.8,0000.0,0007.77,0002.78,0001.89
2023-09-21 15:58:00,SystemResetWarning,0828.9,5.01,000.00,028.4,027.2,000.0,036.7,030.1,19.4,0000.0,0007.92,0002.85,0001.90
2023-09-21 15:59:00,SystemResetWarning,0828.9,5.00,000.00,028.5,027.3,000.0,036.8,030.1,20.4,0000.0,0008.04,0002.92,0001.92
